User: anonymous   Login
Location: Unspecified
(0.0000°N, 0.0000°E)
Time: 20:26:32
(UTC+01:00)
Language:

Iridium 33 - Orbit

View from above orbital plane
View from above orbital plane
View from above satellite
View from above satellite

Ground track
Ground track

The orbit data is extracted from the following two-line orbital elements,

1 24946U 97051C   16044.58710158  .00000188  00000-0  60811-4 0  9994
2 24946  86.3908 131.6865 0009243  49.7458 310.4544 14.33464479963897
Epoch (UTC): 13 February 2016 14:05:25
Eccentricity: 0.0009243
inclination: 86.3908°
perigee height: 773 km
apogee height: 787 km
right ascension of ascending node: 131.6865°
argument of perigee: 49.7458°
revolutions per day: 14.33464479
mean anomaly at epoch: 310.4544°
orbit number at epoch: 96389

The dashed part of the orbit path shows where the satellite is in the earth's shadow,  

DLR